Location: Bramaud
(45.7300°N, 2.9045°E)
Time: 10:25:13
(UTC+00:00)

Daily predictions for brighter satellites

Satellite Brightness Start Highest point End
(mag) Time Altitude Azimuth Time Altitude Azimuth Time Altitude Azimuth
BREEZE-M R/B 4.5 16:26:41 10° W 16:29:57 36° SSW 16:35:18 10° SE
Cosmos 1464 Rocket 4.1 16:28:28 10° S 16:34:50 87° E 16:41:16 10° N
USA 229 DEB 4.0 16:28:24 10° NW 16:35:42 69° NE 16:43:28 10° SE
USA 229 4.0 16:28:30 10° NW 16:35:48 68° NE 16:43:33 10° SE
Cosmos 1937 Rocket 4.0 16:32:21 10° N 16:37:21 39° ENE 16:42:18 10° SE
Cosmos 1500 Rocket 3.7 16:36:03 10° N 16:40:26 55° ENE 16:44:44 10° SSE
Spot 1 4.4 16:35:57 10° NNE 16:40:41 73° ESE 16:45:38 10° S
Nadezhda 4 Rocket 4.0 16:35:58 10° N 16:42:19 77° E 16:48:39 10° SSE
SL-24 R/B - RUBIN 2 4.4 16:38:24 10° NNW 16:42:28 30° NE 16:46:20 10° ESE
ATLAS 2AS CENTAUR R/B 4.4 16:36:46 10° WNW 16:42:43 23° NNW 16:48:28 10° NNE
SeaSat 1 4.3 16:39:03 10° N 16:43:01 25° NW 16:46:57 10° W
Cosmos 2322 Rocket 4.0 16:42:10 10° NNE 16:43:27 11° NNE 16:44:43 10° NE
Cosmos 990 Rocket 3.9 16:39:11 10° NNW 16:44:24 78° ENE 16:49:33 10° SSE
FengYun 1-2 T 4.3 16:40:15 10° SSE 16:45:46 65° ENE 16:51:16 10° N
Cosmos 1697 Rocket 2.7 16:41:06 10° NNW 16:46:40 59° ENE 16:52:12 10° SE
NOAA 6 4.1 16:44:11 10° SSE 16:49:11 55° ENE 16:54:12 10° N
Sich 1 3.7 16:46:13 10° N 16:50:06 32° ENE 16:53:59 10° SE
Cosmos 1980 Rocket 2.7 16:45:38 10° NNW 16:50:52 36° NE 16:56:01 10° ESE
Cosmos 2221 3.1 16:46:54 10° SSW 16:51:08 62° W 16:55:25 10° N
Cosmos 1805 Rocket 3.9 16:48:00 10° N 16:52:09 43° ENE 16:56:16 10° SSE
Cosmos 2369 4.0 16:47:21 10° NNW 16:52:52 46° ENE 16:58:20 10° SE
USA 234 3.3 16:49:12 10° ESE 16:55:41 73° NNE 17:02:13 10° NW
Cosmos 1842 Rocket 4.1 16:51:34 10° SSW 16:56:00 65° WNW 17:00:28 10° N
CZ-4C R/B 3.3 16:50:23 10° NNW 16:56:58 42° NE 17:04:41 10° ESE
Cosmos 1092 Rocket 4.1 16:51:55 10° N 16:58:13 61° ENE 17:04:28 10° SSE
Cosmos 2084 3.7 16:54:32 10° NW 16:58:50 76° SW 17:03:19 10° SSE
NOSS 3-1 (A) 4.2 16:51:47 10° NW 16:59:21 87° SW 17:08:11 10° SE
Cosmos 1812 4.0 16:57:10 10° SE 17:00:02 20° E 17:02:42 11° NE
USA 306 4.2 16:56:58 10° WNW 17:00:36 26° N 17:03:42 13° NE
SL-16 R/B 3.7 16:58:16 10° N 17:01:46 16° NE 17:04:15 13° ENE
ISS -3.3 16:58:57 10° NW 17:02:14 44° NNE 17:04:59 14° E
Meteor 1-25 Rocket 4.1 16:58:19 10° N 17:03:55 76° E 17:09:30 10° SSE
NOSS 2-2 (D) 4.5 16:59:52 10° NNW 17:04:50 53° NE 17:11:43 10° ESE
SMAP 3.0 17:00:31 10° SSE 17:05:09 76° ENE 17:09:49 10° N
NOSS 2-2 (E) 4.4 17:00:00 10° NNW 17:05:12 63° NE 17:12:31 10° SE
Cosmos 2082 Rocket 2.8 17:00:23 10° S 17:05:35 39° ESE 17:10:43 10° NE
Meteor PRIRODA 4.5 17:02:19 10° S 17:05:53 54° W 17:09:28 10° NNW
Cosmos 1939 Rocket 2.9 17:02:16 10° SSE 17:06:23 85° ENE 17:10:29 10° NNW
CORIOLIS 4.1 17:02:45 10° SSE 17:08:06 72° ENE 17:13:32 10° N
Cosmos 858 Rocket 4.5 17:04:39 10° NNW 17:09:56 65° ENE 17:15:09 10° SSE
Cosmos 44 Rocket 4.4 17:07:51 10° NNW 17:11:52 24° NE 17:14:23 16° ENE
CZ-4B DEB 4.2 17:09:01 10° SSE 17:14:29 71° ENE 17:19:58 10° N
Cosmos 2278 4.1 17:11:31 10° NNW 17:16:55 41° NE 17:22:16 10° SE
Cosmos 1602 3.6 17:13:31 10° N 17:17:24 82° E 17:21:16 10° S
AQUARIUS 4.1 17:14:34 10° SSE 17:19:04 88° E 17:23:35 10° NNW
USA 307 4.2 17:15:48 10° WNW 17:19:28 26° N 17:21:44 17° NE
Cosmos 1627 Rocket 4.4 17:13:30 10° N 17:19:42 75° E 17:25:49 10° SSE
Cosmos 540 Rocket 3.4 17:15:27 10° SSW 17:20:32 77° ESE 17:25:40 10° NNE
ARGOS 3.6 17:19:46 10° SE 17:24:44 39° ENE 17:29:43 10° N
Cosmos 2279 Rocket 4.2 17:19:43 10° SSE 17:25:34 46° E 17:31:27 10° NNE
COSMOS 2406 3.2 17:20:27 10° SSW 17:26:13 89° ESE 17:31:59 10° NNE
COSMO-SKYMED 1 3.2 17:23:24 15° NE 17:26:35 34° E 17:30:32 10° SSE
Cosmos 1833 Rocket 2.9 17:21:57 10° SSW 17:27:33 71° WNW 17:33:12 10° NNE
Cosmos 1782 2.7 17:25:00 10° S 17:28:58 77° E 17:32:58 10° NNE
Cosmos 1814 Rocket 4.3 17:25:11 10° S 17:30:07 44° ESE 17:33:44 17° NE
Meteor 2-21 4.3 17:24:35 10° N 17:30:42 81° E 17:36:45 10° SSE
ATLAS 5 CENTAUR R/B 3.0 17:24:38 10° NW 17:31:45 30° NNE 17:33:07 24° NE
Cosmos 921 Rocket 4.5 17:30:30 10° SE 17:32:43 18° ESE 17:32:43 18° ESE
Cosmos 1633 Rocket 3.3 17:31:09 10° N 17:35:20 43° ENE 17:39:31 10° SSE
Cosmos 1818 4.1 17:31:01 10° NNW 17:36:06 37° NE 17:38:50 23° E
YAOGAN 1 4.4 17:39:35 15° NNE 17:39:35 15° NNE 17:40:38 10° NNE
CZ-2D R/B 3.2 17:36:02 10° SSE 17:39:52 86° WSW 17:43:43 10° NNW
GEOS 3 Rocket 4.3 17:37:58 24° E 17:40:05 33° NE 17:44:41 10° NNW
USA 308 4.1 17:38:24 10° NW 17:42:03 27° N 17:43:13 24° NNE
Cosmos 1634 Rocket 4.1 17:36:09 10° S 17:42:28 87° W 17:48:51 10° N
SJ-11-01 4.4 17:38:02 10° SSE 17:42:37 52° ENE 17:47:14 10° N
COSMOS 2455 2.8 17:37:28 10° SSW 17:43:29 86° ESE 17:48:14 17° NNE
PAYLOAD B 4.3 17:38:42 10° SSE 17:44:19 86° WSW 17:49:57 10° NNW
CZ-2C R/B 2.6 17:40:56 10° NNE 17:46:04 57° E 17:51:08 10° S
CZ-4B R/B 3.0 17:41:27 10° SSE 17:46:50 72° ENE 17:52:11 10° N
Cosmos 1500 3.4 17:43:10 10° NNW 17:46:54 69° W 17:50:35 10° S
Cosmos 1151 Rocket 2.9 17:43:43 10° S 17:47:59 66° E 17:51:27 16° NNE
Cosmos 2026 Rocket 4.2 17:42:21 10° NNW 17:48:28 70° W 17:54:29 10° S
Lacrosse 5 rocket 2.0 17:46:49 10° NW 17:50:24 33° NNE 17:50:36 33° NE
Okean O Rocket 1.6 17:46:33 10° SSE 17:50:55 60° ENE 17:55:19 10° N
Cosmos 2208 Rocket 4.1 17:54:01 10° S 17:59:16 56° ESE 18:01:39 31° NE
CZ-4 R/B 4.3 17:56:09 10° SSE 18:00:15 70° ENE 18:04:23 10° N
Cosmos 1666 Rocket 3.6 17:56:45 10° N 18:01:13 82° W 18:05:36 10° S
Meteor 1-10 Rocket 4.4 17:56:47 10° SSE 18:02:18 47° E 18:04:53 29° NE
H-2A R/B 2.4 17:57:54 10° S 18:03:03 64° WSW 18:08:04 10° NNW
Meteor 1-11 Rocket 4.0 17:58:00 10° N 18:03:17 41° ENE 18:05:46 27° ESE
Cosmos 1470 Rocket 3.6 18:00:04 10° N 18:04:26 52° ENE 18:08:49 10° SSE
Cosmos 2150 Rocket 4.3 17:59:34 10° N 18:04:31 42° ENE 18:04:48 42° ENE
USA 267 3.8 18:01:04 23° NE 18:05:02 51° NNW 18:11:18 10° W
Cosmos 1328 Rocket 3.4 18:01:05 10° S 18:05:30 72° E 18:07:30 32° NNE
Cosmos 1655 Rocket 4.0 18:00:16 10° N 18:06:35 56° ENE 18:12:49 10° SSE
Cosmos 2360 Rocket 3.7 18:04:26 10° N 18:07:10 20° NNE 18:07:10 20° NNE
USA 305 4.0 18:05:07 10° NW 18:08:46 30° N 18:08:46 30° N
Landsat 5 3.3 18:08:41 61° ENE 18:09:10 67° ESE 18:13:07 10° S
Cosmos 2180 Rocket 4.4 18:07:55 10° S 18:14:15 82° E 18:20:34 10° N
SKYMED 2 3.7 18:12:01 22° N 18:14:45 75° WNW 18:19:05 10° SSW
Cosmos 841 Rocket 4.3 18:09:48 10° SW 18:14:47 49° WNW 18:18:54 15° N
Feng Yun 1-1 Rocket 4.3 18:10:25 10° SSE 18:16:17 69° ENE 18:22:08 10° N
Cosmos 1666 3.2 18:12:42 10° NNW 18:16:21 56° W 18:19:58 10° S
Meteor 2-8 Rocket 4.3 18:11:42 10° S 18:17:50 85° E 18:24:03 10° N
ATLAS CENTAUR R/B 3.2 18:11:26 10° WSW 18:19:16 42° NW 18:20:43 32° N
Cosmos 1125 Rocket 3.6 18:17:30 10° NNW 18:22:14 54° NE 18:22:14 54° NE
Cosmos 2322 Rocket 2.9 18:23:39 10° NNW 18:27:49 38° NNE 18:27:49 38° NNE
SL-08 RB Rocket 3.8 18:29:33 10° S 18:34:11 74° WSW 18:38:49 10° NNW
Cosmos 1980 Rocket 3.5 18:29:39 10° NW 18:34:54 40° WSW 18:40:04 10° S
ATLAS 2AS CENTAUR R/B 4.3 18:31:13 10° NW 18:36:34 20° N 18:37:27 20° NNE
USA 234 4.5 18:32:59 10° SSE 18:38:59 39° SW 18:45:02 10° WNW
ISS -1.8 18:35:50 10° WNW 18:37:58 30° W 18:37:58 30° W
USA 306 4.5 18:37:19 10° NW 18:39:42 27° NNW 18:39:42 27° NNW
CZ-4C R/B 3.4 18:38:44 10° NW 18:46:01 64° WSW 18:54:25 10° SSE
SL-16 R/B 2.2 18:41:11 10° NNW 18:46:11 66° N 18:46:11 66° N
Cosmos 2082 Rocket 3.5 18:44:26 10° WSW 18:49:41 37° NW 18:52:35 23° N
Cosmos 44 Rocket 3.7 18:48:59 10° NW 18:53:09 58° WNW 18:53:09 58° WNW
Cosmos 2333 Rocket 4.3 18:53:15 10° N 18:54:27 15° N 18:54:27 15° N
GEOS 3 Rocket 4.5 19:19:06 47° WNW 19:19:06 47° WNW 19:23:03 10° NW
Lacrosse 5 rocket 4.3 19:25:44 10° WNW 19:26:13 13° WNW 19:26:13 13° WNW
BREEZE-M DEB (TANK) 4.3 19:25:10 10° SW 19:44:57 79° WSW 19:44:57 79° WSW
Cosmos 2360 Rocket 4.5 19:47:46 10° NNW 19:48:57 17° NNW 19:48:57 17° NNW
